Back to catalog

YAOGAN-36 02C

AliveMilitaryVLEO
NORAD 54045·PAYLOAD·🇨🇳 China

Launched Oct 14, 2022 from Xichang Satellite Launch Center

Loading…

Next Passes (next 24 hours)

TLE

FreshSource: Space-Track

Epoch: Sep 14, 2026, 22:56 UTC

1 54045U 22133D   26257.95620207  .00070589  00000-0  96135-3 0  9998
2 54045  34.9874 203.2152 0008175 311.4276  48.5746 15.56316260219185

Track YAOGAN-36 02C in real time with AllMySat

Download on the App Store